Terminal Aerodrome Forecast
Issued by NWS Columbia, SC

Home | Current Version | Previous Version | Text Only | Print | Product List | Glossary On
Versions: 1 2 3 4 5 6 7 8 9 10 11 12 13 14 15 16 17 18 19 20 21 22 23 24 25 26 27 28 29 30 31 32
000
FTUS42 KCAE 050525
TAFCAE
TAF
KCAE 050525Z 0506/0606 26006KT P6SM SCT070
     FM051200 30011G17KT P6SM FEW035 SCT070
     FM051700 30013G21KT P6SM VCSH BKN050
     FM052300 30008KT P6SM BKN050=

USA.gov is the U.S. government's official web portal to all federal, state and local government web resources and services.